AEE680 LGAV-LIRN

Flight info

Callsign AEE680
Flight time 1h 34m
Altitude 30000
Route KOR UL53 IXONI DCT TIGRA DCT MOKTO DCT DOGUS DCT EKTOL
Aircraft A320/M-SDE3FGHIRWY/LB1

Departure

Time 2026-05-07 10:59
Airport Athens Eleftherios Venizelos International Airport (LGAV)

Arrival

Time 2026-05-07 12:33
Airport Naples International Airport (LIRN)
Time Latitude Longitude Altitude Speed Heading
2026-05-07 09:51 37.93694 23.94922 303 ft 0 kts 308°
2026-05-07 10:46 37.93689 23.94931 301 ft 4 kts 308°
2026-05-07 10:46 37.93675 23.94953 303 ft 2 kts 308°
2026-05-07 10:46 37.93659 23.94978 300 ft 4 kts 315°
2026-05-07 10:46 37.93640 23.94994 300 ft 4 kts 14°
2026-05-07 10:47 37.93620 23.94979 300 ft 2 kts 37°
2026-05-07 10:47 37.93618 23.94977 300 ft 0 kts 37°
2026-05-07 10:51 37.93622 23.94982 300 ft 3 kts 37°
2026-05-07 10:51 37.93665 23.95023 300 ft 12 kts 37°
2026-05-07 10:52 37.93719 23.95078 301 ft 3 kts 59°
2026-05-07 10:52 37.93711 23.95116 302 ft 6 kts 119°
2026-05-07 10:52 37.93683 23.95166 303 ft 8 kts 126°
2026-05-07 10:52 37.93648 23.95239 299 ft 11 kts 102°
2026-05-07 10:53 37.93695 23.95324 298 ft 14 kts 37°
2026-05-07 10:53 37.93777 23.95401 296 ft 16 kts 36°
2026-05-07 10:53 37.93870 23.95487 297 ft 17 kts 37°
2026-05-07 10:53 37.93969 23.95584 298 ft 19 kts 38°
2026-05-07 10:54 37.94078 23.95687 300 ft 20 kts 36°
2026-05-07 10:54 37.94189 23.95792 299 ft 20 kts 36°
2026-05-07 10:54 37.94298 23.95896 299 ft 19 kts 36°
2026-05-07 10:54 37.94408 23.96000 299 ft 20 kts 36°
2026-05-07 10:55 37.94521 23.96107 300 ft 21 kts 37°
2026-05-07 10:55 37.94635 23.96215 300 ft 20 kts 36°
2026-05-07 10:55 37.94745 23.96319 299 ft 20 kts 37°
2026-05-07 10:55 37.94859 23.96424 301 ft 21 kts 36°
2026-05-07 10:56 37.94976 23.96539 303 ft 21 kts 37°
2026-05-07 10:56 37.95072 23.96630 303 ft 16 kts 37°
2026-05-07 10:56 37.95163 23.96716 304 ft 17 kts 37°
2026-05-07 10:56 37.95260 23.96808 304 ft 18 kts 37°
2026-05-07 10:57 37.95277 23.96933 306 ft 15 kts 126°
2026-05-07 10:57 37.95271 23.96941 306 ft 0 kts 130°
2026-05-07 10:57 37.95268 23.96946 306 ft 4 kts 130°
2026-05-07 10:57 37.95244 23.96989 308 ft 10 kts 126°
2026-05-07 10:58 37.95172 23.97002 310 ft 12 kts 212°
2026-05-07 10:58 37.95006 23.96846 308 ft 67 kts 217°
2026-05-07 10:58 37.94419 23.96291 292 ft 142 kts 217°
2026-05-07 10:58 37.93507 23.95424 588 ft 175 kts 217°
2026-05-07 10:59 37.92430 23.94506 1187 ft 195 kts 208°
2026-05-07 10:59 37.91231 23.93691 2037 ft 196 kts 207°
2026-05-07 10:59 37.89966 23.92853 2487 ft 215 kts 208°
2026-05-07 10:59 37.88568 23.91923 2885 ft 238 kts 208°
2026-05-07 11:00 37.87065 23.90921 3560 ft 247 kts 209°
2026-05-07 11:00 37.85534 23.89891 4387 ft 251 kts 210°
2026-05-07 11:00 37.84002 23.88857 5230 ft 254 kts 210°
2026-05-07 11:00 37.82433 23.87794 6062 ft 257 kts 210°
2026-05-07 11:01 37.80846 23.86716 6924 ft 260 kts 210°
2026-05-07 11:01 37.79245 23.85626 7718 ft 263 kts 210°
2026-05-07 11:01 37.77623 23.84515 8496 ft 266 kts 210°
2026-05-07 11:01 37.75977 23.83388 9275 ft 270 kts 210°
2026-05-07 11:02 37.74310 23.82251 10035 ft 274 kts 210°
2026-05-07 11:02 37.72633 23.81127 10703 ft 277 kts 209°
2026-05-07 11:02 37.70913 23.79983 11369 ft 281 kts 210°
2026-05-07 11:02 37.69163 23.78819 12029 ft 285 kts 210°
2026-05-07 11:03 37.67391 23.77638 12688 ft 289 kts 210°
2026-05-07 11:03 37.65596 23.76442 13343 ft 294 kts 210°
2026-05-07 11:03 37.63773 23.75230 13983 ft 298 kts 210°
2026-05-07 11:03 37.61922 23.74004 14564 ft 301 kts 211°
2026-05-07 11:04 37.60079 23.72783 15147 ft 304 kts 211°
2026-05-07 11:04 37.58200 23.71533 15744 ft 307 kts 211°
2026-05-07 11:04 37.56429 23.70017 16085 ft 313 kts 231°
2026-05-07 11:04 37.55309 23.67646 16217 ft 321 kts 257°
2026-05-07 11:05 37.54824 23.64832 16345 ft 337 kts 262°
2026-05-07 11:05 37.54363 23.61850 16475 ft 355 kts 262°
2026-05-07 11:05 37.53880 23.58767 16616 ft 370 kts 261°
2026-05-07 11:05 37.53363 23.55544 17021 ft 378 kts 261°
2026-05-07 11:06 37.52832 23.52286 17578 ft 381 kts 261°
2026-05-07 11:06 37.52292 23.49004 18200 ft 384 kts 261°
2026-05-07 11:06 37.51746 23.45695 18791 ft 386 kts 261°
2026-05-07 11:06 37.51380 23.43488 19152 ft 388 kts 261°
2026-05-07 11:07 37.50644 23.39044 19854 ft 392 kts 261°
2026-05-07 11:07 37.50085 23.35667 20377 ft 396 kts 261°
2026-05-07 11:07 37.49711 23.33410 20717 ft 398 kts 261°
2026-05-07 11:07 37.49290 23.29965 21193 ft 397 kts 271°
2026-05-07 11:08 37.49518 23.26513 21646 ft 395 kts 285°
2026-05-07 11:08 37.50421 23.23256 22104 ft 394 kts 298°
2026-05-07 11:08 37.51935 23.20384 22552 ft 395 kts 312°
2026-05-07 11:08 37.53968 23.18070 22988 ft 397 kts 325°
2026-05-07 11:09 37.56394 23.16383 23415 ft 400 kts 333°
2026-05-07 11:09 37.58909 23.14832 23827 ft 402 kts 333°
2026-05-07 11:09 37.61433 23.13276 24165 ft 404 kts 333°
2026-05-07 11:09 37.63938 23.11727 24506 ft 406 kts 333°
2026-05-07 11:10 37.66475 23.10153 24847 ft 408 kts 333°
2026-05-07 11:10 37.69035 23.08560 25176 ft 410 kts 332°
2026-05-07 11:10 37.71606 23.06961 25495 ft 412 kts 332°
2026-05-07 11:10 37.74189 23.05353 25818 ft 414 kts 332°
2026-05-07 11:11 37.76787 23.03733 26141 ft 416 kts 332°
2026-05-07 11:11 37.79392 23.02109 26457 ft 419 kts 332°
2026-05-07 11:11 37.81983 23.00494 26781 ft 421 kts 332°
2026-05-07 11:11 37.84626 22.98845 27107 ft 423 kts 332°
2026-05-07 11:12 37.87264 22.97199 27509 ft 422 kts 332°
2026-05-07 11:12 37.89890 22.95528 27976 ft 420 kts 329°
2026-05-07 11:12 37.92303 22.93457 28432 ft 418 kts 319°
2026-05-07 11:12 37.94392 22.90906 28897 ft 416 kts 310°
2026-05-07 11:13 37.96127 22.87984 29356 ft 415 kts 304°
2026-05-07 11:13 37.97778 22.84975 29833 ft 414 kts 304°
2026-05-07 11:13 37.99408 22.82019 30086 ft 414 kts 304°
2026-05-07 11:13 38.01076 22.78994 30119 ft 421 kts 304°
2026-05-07 11:14 38.04451 22.72869 30116 ft 424 kts 304°
2026-05-07 11:14 38.07830 22.66705 30119 ft 425 kts 304°
2026-05-07 11:15 38.11181 22.60574 30121 ft 425 kts 304°
2026-05-07 11:15 38.14555 22.54400 30118 ft 425 kts 304°
2026-05-07 11:16 38.17923 22.48223 30119 ft 425 kts 304°
2026-05-07 11:16 38.21293 22.42038 30118 ft 425 kts 304°
2026-05-07 11:17 38.24664 22.35850 30125 ft 425 kts 304°
2026-05-07 11:17 38.28001 22.29696 30123 ft 425 kts 303°
2026-05-07 11:18 38.31353 22.23503 30123 ft 424 kts 303°
2026-05-07 11:18 38.34707 22.17304 30130 ft 424 kts 303°
2026-05-07 11:19 38.38033 22.11145 30130 ft 423 kts 303°
2026-05-07 11:19 38.41375 22.04935 30123 ft 423 kts 303°
2026-05-07 11:20 38.44692 21.98742 30127 ft 423 kts 303°
2026-05-07 11:20 38.47994 21.92570 30128 ft 423 kts 303°
2026-05-07 11:21 38.51310 21.86374 30119 ft 422 kts 303°
2026-05-07 11:21 38.54628 21.80174 30122 ft 422 kts 303°
2026-05-07 11:22 38.57911 21.74018 30132 ft 422 kts 303°
2026-05-07 11:22 38.61212 21.67805 30130 ft 421 kts 303°
2026-05-07 11:23 38.64510 21.61599 30129 ft 421 kts 303°
2026-05-07 11:23 38.67782 21.55425 30122 ft 421 kts 303°
2026-05-07 11:24 38.71068 21.49193 30118 ft 421 kts 303°
2026-05-07 11:24 38.74354 21.42963 30121 ft 421 kts 303°
2026-05-07 11:25 38.77617 21.36761 30120 ft 422 kts 302°
2026-05-07 11:25 38.80900 21.30520 30122 ft 422 kts 302°
2026-05-07 11:26 38.84177 21.24275 30126 ft 421 kts 302°
2026-05-07 11:26 38.87431 21.18066 30131 ft 421 kts 302°
2026-05-07 11:27 38.90702 21.11809 30127 ft 421 kts 302°
2026-05-07 11:27 38.93968 21.05557 30128 ft 420 kts 302°
2026-05-07 11:28 38.97204 20.99358 30130 ft 420 kts 302°
2026-05-07 11:28 39.00454 20.93098 30128 ft 420 kts 302°
2026-05-07 11:29 39.03702 20.86828 30130 ft 420 kts 302°
2026-05-07 11:29 39.06919 20.80612 30129 ft 420 kts 302°
2026-05-07 11:30 39.10158 20.74345 30130 ft 420 kts 302°
2026-05-07 11:30 39.13392 20.68069 30128 ft 419 kts 301°
2026-05-07 11:31 39.16599 20.61839 30127 ft 419 kts 301°
2026-05-07 11:31 39.19821 20.55563 30121 ft 419 kts 301°
2026-05-07 11:32 39.24651 20.46131 30118 ft 419 kts 301°
2026-05-07 11:33 39.27842 20.39875 30119 ft 419 kts 301°
2026-05-07 11:33 39.31050 20.33580 30116 ft 419 kts 301°
2026-05-07 11:34 39.34261 20.27273 30112 ft 420 kts 301°
2026-05-07 11:34 39.37471 20.20962 30105 ft 419 kts 301°
2026-05-07 11:35 39.40653 20.14689 30106 ft 419 kts 301°
2026-05-07 11:35 39.43850 20.08365 30103 ft 419 kts 301°
2026-05-07 11:36 39.47188 20.02163 30098 ft 420 kts 304°
2026-05-07 11:36 39.50729 19.96188 30095 ft 420 kts 305°
2026-05-07 11:37 39.54293 19.90194 30096 ft 419 kts 304°
2026-05-07 11:37 39.57807 19.84154 30093 ft 419 kts 304°
2026-05-07 11:38 39.61276 19.78123 30092 ft 419 kts 303°
2026-05-07 11:38 39.64754 19.72043 30095 ft 419 kts 303°
2026-05-07 11:39 39.68226 19.65976 30100 ft 418 kts 304°
2026-05-07 11:39 39.71703 19.59907 30102 ft 418 kts 304°
2026-05-07 11:40 39.75178 19.53841 30104 ft 418 kts 303°
2026-05-07 11:40 39.78622 19.47807 30108 ft 418 kts 303°
2026-05-07 11:41 39.82096 19.41722 30103 ft 418 kts 303°
2026-05-07 11:41 39.85535 19.35668 30099 ft 418 kts 303°
2026-05-07 11:42 39.88990 19.29576 30103 ft 418 kts 303°
2026-05-07 11:42 39.92450 19.23474 30102 ft 418 kts 303°
2026-05-07 11:43 39.95902 19.17363 30102 ft 417 kts 303°
2026-05-07 11:43 39.99324 19.11296 30106 ft 417 kts 303°
2026-05-07 11:44 40.02757 19.05194 30103 ft 417 kts 303°
2026-05-07 11:44 40.05988 18.98923 30100 ft 413 kts 294°
2026-05-07 11:45 40.08261 18.92030 30102 ft 412 kts 291°
2026-05-07 11:45 40.10493 18.85175 30102 ft 412 kts 291°
2026-05-07 11:46 40.12158 18.80054 30105 ft 411 kts 291°
2026-05-07 11:46 40.14373 18.73203 30101 ft 411 kts 291°
2026-05-07 11:47 40.16598 18.66317 30100 ft 410 kts 291°
2026-05-07 11:47 40.18810 18.59432 30094 ft 410 kts 291°
2026-05-07 11:48 40.21017 18.52560 30090 ft 410 kts 291°
2026-05-07 11:48 40.23221 18.45682 30095 ft 409 kts 291°
2026-05-07 11:49 40.25421 18.38805 30101 ft 408 kts 291°
2026-05-07 11:49 40.27594 18.31989 30101 ft 408 kts 291°
2026-05-07 11:50 40.29770 18.25131 30095 ft 407 kts 291°
2026-05-07 11:50 40.31583 18.19421 30103 ft 407 kts 290°
2026-05-07 11:51 40.34096 18.11450 30088 ft 406 kts 290°
2026-05-07 11:51 40.35891 18.05761 30092 ft 406 kts 290°
2026-05-07 11:52 40.38046 17.98909 30087 ft 406 kts 290°
2026-05-07 11:52 40.40199 17.92054 30079 ft 406 kts 290°
2026-05-07 11:53 40.42335 17.85242 30069 ft 406 kts 290°
2026-05-07 11:53 40.44486 17.78372 30070 ft 406 kts 290°
2026-05-07 11:54 40.46607 17.71554 30080 ft 406 kts 290°
2026-05-07 11:54 40.48739 17.64680 30084 ft 406 kts 290°
2026-05-07 11:55 40.50870 17.57821 30082 ft 406 kts 290°
2026-05-07 11:55 40.52998 17.50934 30084 ft 406 kts 290°
2026-05-07 11:56 40.55117 17.44039 30076 ft 407 kts 290°
2026-05-07 11:56 40.57229 17.37171 30075 ft 407 kts 290°
2026-05-07 11:57 40.59359 17.30240 30073 ft 408 kts 289°
2026-05-07 11:57 40.61480 17.23302 30067 ft 408 kts 289°
2026-05-07 11:58 40.63589 17.16404 30070 ft 409 kts 289°
2026-05-07 11:58 40.65721 17.09427 30054 ft 409 kts 289°
2026-05-07 11:59 40.67828 17.02497 30048 ft 410 kts 289°
2026-05-07 11:59 40.69944 16.95511 30047 ft 410 kts 289°
2026-05-07 12:00 40.72064 16.88507 30048 ft 410 kts 289°
2026-05-07 12:00 40.74153 16.81536 30051 ft 411 kts 289°
2026-05-07 12:01 40.76253 16.74515 30050 ft 411 kts 289°
2026-05-07 12:01 40.78367 16.67500 30056 ft 411 kts 289°
2026-05-07 12:02 40.80461 16.60524 30057 ft 410 kts 289°
2026-05-07 12:02 40.82557 16.53497 30060 ft 410 kts 288°
2026-05-07 12:03 40.84645 16.46474 30065 ft 410 kts 288°
2026-05-07 12:03 40.86718 16.39505 30072 ft 410 kts 288°
2026-05-07 12:04 40.88798 16.32479 30064 ft 409 kts 288°
2026-05-07 12:04 40.90856 16.25465 30062 ft 409 kts 288°
2026-05-07 12:05 40.92902 16.18493 30056 ft 409 kts 288°
2026-05-07 12:05 40.94954 16.11472 30048 ft 408 kts 286°
2026-05-07 12:06 40.96304 16.04216 30043 ft 405 kts 281°
2026-05-07 12:06 40.97541 15.96927 30033 ft 405 kts 280°
2026-05-07 12:06 40.98150 15.93330 29891 ft 405 kts 280°
2026-05-07 12:07 40.98767 15.89690 29607 ft 406 kts 280°
2026-05-07 12:07 40.99387 15.86042 28796 ft 407 kts 280°
2026-05-07 12:07 41.00010 15.82362 27830 ft 410 kts 280°
2026-05-07 12:07 41.00626 15.78695 27231 ft 404 kts 280°
2026-05-07 12:08 41.01233 15.75079 26617 ft 400 kts 280°
2026-05-07 12:08 41.01835 15.71487 25991 ft 397 kts 280°
2026-05-07 12:08 41.02431 15.67919 25378 ft 395 kts 280°
2026-05-07 12:08 41.03024 15.64367 24761 ft 393 kts 279°
2026-05-07 12:09 41.03604 15.60877 24161 ft 392 kts 279°
2026-05-07 12:09 41.04188 15.57339 23544 ft 392 kts 279°
2026-05-07 12:09 41.04773 15.53801 22872 ft 391 kts 279°
2026-05-07 12:09 41.05354 15.50288 22270 ft 389 kts 279°
2026-05-07 12:10 41.05932 15.46790 21663 ft 387 kts 279°
2026-05-07 12:10 41.06503 15.43312 21068 ft 386 kts 279°
2026-05-07 12:10 41.07065 15.39886 20493 ft 385 kts 279°
2026-05-07 12:10 41.07634 15.36423 19925 ft 384 kts 279°
2026-05-07 12:11 41.08204 15.32962 19372 ft 383 kts 279°
2026-05-07 12:11 41.08771 15.29506 18832 ft 382 kts 279°
2026-05-07 12:11 41.09335 15.26066 18314 ft 381 kts 279°
2026-05-07 12:11 41.09776 15.22617 17736 ft 376 kts 271°
2026-05-07 12:12 41.09677 15.19185 17229 ft 369 kts 259°
2026-05-07 12:12 41.09046 15.15963 16794 ft 363 kts 248°
2026-05-07 12:12 41.07907 15.12972 16532 ft 366 kts 237°
2026-05-07 12:12 41.06333 15.10308 16224 ft 367 kts 229°
2026-05-07 12:13 41.04663 15.07750 15917 ft 366 kts 229°
2026-05-07 12:13 41.03000 15.05200 15613 ft 365 kts 229°
2026-05-07 12:13 41.01343 15.02655 15302 ft 364 kts 229°
2026-05-07 12:13 40.99692 15.00120 14998 ft 362 kts 229°
2026-05-07 12:14 40.98047 14.97600 14701 ft 361 kts 229°
2026-05-07 12:14 40.96405 14.95084 14405 ft 359 kts 229°
2026-05-07 12:14 40.94777 14.92589 14108 ft 357 kts 229°
2026-05-07 12:14 40.93150 14.90103 13816 ft 356 kts 229°
2026-05-07 12:15 40.91524 14.87627 13494 ft 355 kts 229°
2026-05-07 12:15 40.89925 14.85193 13206 ft 354 kts 229°
2026-05-07 12:15 40.88367 14.82747 12997 ft 340 kts 233°
2026-05-07 12:15 40.87120 14.80168 12864 ft 325 kts 238°
2026-05-07 12:16 40.85955 14.77668 12732 ft 313 kts 237°
2026-05-07 12:16 40.84828 14.75266 12604 ft 302 kts 237°
2026-05-07 12:16 40.83735 14.72950 12473 ft 293 kts 237°
2026-05-07 12:16 40.82673 14.70703 12342 ft 284 kts 237°
2026-05-07 12:17 40.81784 14.68415 12206 ft 277 kts 255°
2026-05-07 12:17 40.81859 14.65928 12088 ft 274 kts 288°
2026-05-07 12:17 40.82962 14.63951 11970 ft 274 kts 320°
2026-05-07 12:17 40.84476 14.62589 11742 ft 274 kts 324°
2026-05-07 12:18 40.86087 14.61281 11517 ft 269 kts 326°
2026-05-07 12:18 40.87716 14.60070 11260 ft 267 kts 336°
2026-05-07 12:18 40.89550 14.59722 11058 ft 270 kts
2026-05-07 12:18 40.91270 14.60570 10877 ft 270 kts 36°
2026-05-07 12:19 40.92518 14.62409 10734 ft 271 kts 58°
2026-05-07 12:19 40.93521 14.64534 10567 ft 271 kts 59°
2026-05-07 12:19 40.94507 14.66655 10416 ft 270 kts 59°
2026-05-07 12:19 40.95484 14.68770 10243 ft 268 kts 59°
2026-05-07 12:20 40.96456 14.70876 10097 ft 267 kts 59°
2026-05-07 12:20 40.97422 14.72965 9939 ft 265 kts 59°
2026-05-07 12:20 40.98388 14.75045 9785 ft 264 kts 58°
2026-05-07 12:20 40.99343 14.77090 9620 ft 264 kts 58°
2026-05-07 12:21 41.00311 14.79158 9472 ft 263 kts 58°
2026-05-07 12:21 41.01274 14.81219 9321 ft 262 kts 58°
2026-05-07 12:21 41.02232 14.83275 9165 ft 262 kts 58°
2026-05-07 12:21 41.03232 14.85287 9010 ft 261 kts 48°
2026-05-07 12:22 41.04682 14.86564 8862 ft 251 kts 14°
2026-05-07 12:22 41.06369 14.86628 8714 ft 239 kts 342°
2026-05-07 12:22 41.07824 14.85682 8564 ft 229 kts 326°
2026-05-07 12:22 41.09166 14.84584 8418 ft 223 kts 326°
2026-05-07 12:23 41.10458 14.83527 8319 ft 212 kts 326°
2026-05-07 12:23 41.11509 14.82237 8158 ft 203 kts 301°
2026-05-07 12:23 41.11975 14.80534 8028 ft 199 kts 275°
2026-05-07 12:23 41.11816 14.78739 7920 ft 195 kts 249°
2026-05-07 12:24 41.11169 14.77208 7798 ft 187 kts 238°
2026-05-07 12:24 41.10480 14.75747 7702 ft 186 kts 238°
2026-05-07 12:24 41.09795 14.74290 7601 ft 185 kts 238°
2026-05-07 12:24 41.09124 14.72889 7491 ft 177 kts 237°
2026-05-07 12:25 41.08481 14.71538 7392 ft 175 kts 238°
2026-05-07 12:25 41.07839 14.70167 7292 ft 174 kts 238°
2026-05-07 12:25 41.07201 14.68800 7190 ft 174 kts 238°
2026-05-07 12:25 41.06568 14.67440 7102 ft 173 kts 238°
2026-05-07 12:26 41.05935 14.66081 6992 ft 174 kts 238°
2026-05-07 12:26 41.05307 14.64733 6737 ft 173 kts 238°
2026-05-07 12:26 41.04671 14.63368 6503 ft 174 kts 239°
2026-05-07 12:26 41.04035 14.62004 6259 ft 174 kts 238°
2026-05-07 12:27 41.03400 14.60642 6012 ft 173 kts 238°
2026-05-07 12:27 41.02766 14.59283 5746 ft 173 kts 238°
2026-05-07 12:27 41.02136 14.57932 5487 ft 172 kts 237°
2026-05-07 12:27 41.01507 14.56586 5234 ft 172 kts 237°
2026-05-07 12:28 41.00887 14.55258 4980 ft 170 kts 237°
2026-05-07 12:28 41.00261 14.53919 4739 ft 170 kts 237°
2026-05-07 12:28 40.99640 14.52591 4479 ft 170 kts 236°
2026-05-07 12:28 40.99020 14.51265 4221 ft 168 kts 237°
2026-05-07 12:29 40.98400 14.49941 3978 ft 169 kts 237°
2026-05-07 12:29 40.97784 14.48624 3732 ft 164 kts 237°
2026-05-07 12:29 40.97204 14.47386 3502 ft 158 kts 238°
2026-05-07 12:29 40.96624 14.46148 3279 ft 157 kts 238°
2026-05-07 12:30 40.96046 14.44916 3048 ft 157 kts 238°
2026-05-07 12:30 40.95470 14.43688 2819 ft 156 kts 238°
2026-05-07 12:30 40.94904 14.42480 2597 ft 156 kts 238°
2026-05-07 12:30 40.94331 14.41260 2373 ft 156 kts 239°
2026-05-07 12:31 40.93763 14.40037 2141 ft 155 kts 238°
2026-05-07 12:31 40.93196 14.38821 1917 ft 155 kts 238°
2026-05-07 12:31 40.92622 14.37616 1688 ft 154 kts 238°
2026-05-07 12:31 40.92057 14.36403 1406 ft 154 kts 239°
2026-05-07 12:32 40.91503 14.35187 1171 ft 154 kts 239°
2026-05-07 12:32 40.90946 14.33992 938 ft 154 kts 238°
2026-05-07 12:32 40.90364 14.32798 695 ft 154 kts 237°
2026-05-07 12:32 40.89789 14.31597 492 ft 154 kts 238°
2026-05-07 12:33 40.88699 14.29287 262 ft 89 kts 238°
2026-05-07 12:33 40.88478 14.28815 273 ft 25 kts 238°
2026-05-07 12:33 40.88385 14.28791 279 ft 10 kts 154°
2026-05-07 12:34 40.88343 14.28824 275 ft 4 kts 148°
2026-05-07 12:34 40.88342 14.28825 275 ft 0 kts 148°
2026-05-07 12:34 40.88340 14.28826 275 ft 2 kts 148°
2026-05-07 12:35 40.88308 14.28852 276 ft 8 kts 149°
2026-05-07 12:35 40.88255 14.28895 276 ft 10 kts 148°
2026-05-07 12:35 40.88197 14.28867 280 ft 10 kts 230°
2026-05-07 12:35 40.88148 14.28784 279 ft 12 kts 232°
2026-05-07 12:36 40.88096 14.28694 281 ft 13 kts 233°
2026-05-07 12:36 40.88060 14.28633 283 ft 13 kts 232°
2026-05-07 12:36 40.88005 14.28537 285 ft 13 kts 229°
2026-05-07 12:36 40.87941 14.28451 287 ft 13 kts 245°
2026-05-07 12:37 40.87954 14.28291 290 ft 13 kts 301°
2026-05-07 12:37 40.88018 14.28246 291 ft 0 kts 333°